Weather History for Chillicothe, MO

Change the Weather History Date:

Saturday, February 16, 2013

  Actual Average (KIRK) Record (KIRK)
Temperature  
Mean Temperature 24 °F 30 °F  
Max Temperature 37 °F 39 °F 65 °F (1921)
Min Temperature 12 °F 21 °F -15 °F (1958)
Degree Days  
Heating Degree Days 40 35  
Month to date heating degree days 589  
Since 1 July heating degree days 4136  
Cooling Degree Days 0 0  
Month to date cooling degree days 0  
Year to date cooling degree days 0  
Moisture  
Dew Point 15 °F    
Average Humidity 62    
Maximum Humidity 88    
Minimum Humidity 37    
Precipitation  
Precipitation 0.00 in 0.05 in 1.30 in (1951)
Month to date precipitation 0.87  
Year to date precipitation 2.14  
Sea Level Pressure  
Sea Level Pressure 30.28 in    
Wind  
Wind Speed 3 mph (SW)    
Max Wind Speed 9 mph    
Max Gust Speed -    
T = Trace of Precipitation, MM = Missing Value Source: NWS Daily Summary

Daily Weather History Graph

Daily Weather History Graph

Search for Another Location

Airport:

Trip Planner

Search our weather history database for the weather conditions in past years. The results will help you decide how hot, cold, wet, or windy it might be!

Date:

Astronomy

Feb. 16, 2013 Rise Set
Actual Time 7:05 AM CST 5:52 PM CST
Civil Twilight 6:37 AM CST 6:19 PM CST
Nautical Twilight 6:06 AM CST 6:51 PM CST
Astronomical Twilight 5:34 AM CST 7:22 PM CST
Moon 10:19 AM CST (2/16) No Moon Set
Length of Visible Light 11h 41m
Length of Day
10h 46m
Waxing Crescent, 39% of the Moon is Illuminated
Feb 16
Waxing Crescent
Feb 17
First Quarter
Feb 25
Full
Mar 4
Last Quarter
Mar 11
New

Hourly Weather History & Observations

Time (CST) Temp. Windchill Dew Point Humidity Pressure Visibility Wind Dir Wind Speed Gust Speed Precip Events Conditions
12:52 AM 19.0 °F - 12.9 °F 77% 30.37 in - Calm Calm - N/A   Unknown
1:52 AM 18.0 °F 12.7 °F 12.9 °F 81% 30.38 in - NNW 3.5 mph - N/A   Unknown
2:52 AM 19.0 °F 13.9 °F 12.0 °F 74% 30.36 in - NNW 3.5 mph - N/A   Unknown
3:52 AM 18.0 °F - 12.0 °F 78% 30.36 in - Calm Calm - N/A   Unknown
4:52 AM 15.1 °F - 10.9 °F 84% 30.37 in - Calm Calm - N/A   Unknown
5:52 AM 14.0 °F - 10.0 °F 84% 30.37 in - Calm Calm - N/A   Unknown
6:52 AM 12.9 °F - 8.1 °F 81% 30.37 in - Calm Calm - N/A   Unknown
7:52 AM 17.1 °F - 14.0 °F 88% 30.38 in - Calm Calm - N/A   Unknown
8:52 AM 21.9 °F 17.2 °F 14.0 °F 72% 30.37 in - NW 3.5 mph - N/A   Unknown
9:52 AM 25.0 °F 19.3 °F 16.0 °F 69% 30.35 in - SW 4.6 mph - N/A   Unknown
10:52 AM 28.0 °F 20.8 °F 16.0 °F 61% 30.33 in - Variable 6.9 mph - N/A   Unknown
11:52 AM 32.0 °F 25.6 °F 17.1 °F 54% 30.31 in - WNW 6.9 mph - N/A   Unknown
12:52 PM 34.0 °F 27.2 °F 16.0 °F 48% 30.26 in - WNW 8.1 mph - N/A   Unknown
1:52 PM 36.0 °F 29.6 °F 16.0 °F 44% 30.23 in - SW 8.1 mph - N/A   Unknown
2:52 PM 37.0 °F 30.4 °F 14.0 °F 39% 30.21 in - SSW 9.2 mph - N/A   Unknown
3:52 PM 37.0 °F 31.6 °F 12.9 °F 37% 30.20 in - South 6.9 mph - N/A   Unknown
4:52 PM 36.0 °F 31.1 °F 12.0 °F 37% 30.21 in - SSW 5.8 mph - N/A   Unknown
5:52 PM 35.1 °F 31.0 °F 14.0 °F 42% 30.21 in - SW 4.6 mph - N/A   Unknown
6:52 PM 34.0 °F 31.0 °F 16.0 °F 48% 30.21 in - SW 3.5 mph - N/A   Unknown
7:52 PM 33.1 °F 30.0 °F 17.1 °F 52% 30.21 in - SSW 3.5 mph - N/A   Unknown
8:52 PM 32.0 °F - 19.0 °F 59% 30.20 in - Calm Calm - N/A   Unknown
9:52 PM 33.1 °F 30.0 °F 18.0 °F 54% 30.19 in - SE 3.5 mph - N/A   Unknown
10:52 PM 32.0 °F 27.5 °F 19.9 °F 61% 30.18 in - SSE 4.6 mph - N/A   Unknown
11:52 PM 32.0 °F 27.5 °F 21.0 °F 64% 30.17 in - SSE 4.6 mph - N/A   Unknown